Home   Weather   Tarnów   Past weeks

Flag for Poland Past Weather in Tarnów, Poland — Yesterday and Last 2 Weeks

Now
43 °F

Rain showers. Overcast.


Feels Like: 43 °F
Forecast: 41 / 47 °F
Wind: 1 mph from West

Location: Tarnow

Current Time: Dec 9, 2016 at 5:00:20 am

Latest Report: Dec 9, 2016 at 4:00 am


Visibility: 7 mi

Pressure: 30.22 "Hg

Humidity: 66%

Dew Point: 32 °F

Location of TarnówLocation

Past Weather in Tarnów — Graph

°F

Tarnów Temperature Yesterday

Maximum temperature yesterday: 51 °F (at 2:00 pm)
Minimum temperature yesterday: 31 °F (at 12:00 am)
Average temperature yesterday: 41 °F

High & Low Weather Summary for the Past Weeks

 TemperatureHumidityPressure
High53 °F (Nov 24, 2:00 pm)100% (Nov 26, 9:00 am)30.70 "Hg (Nov 26, 9:00 am)
Low18 °F (Dec 5, 6:00 am)45% (Dec 5, 1:00 pm)29.41 "Hg (Dec 2, 4:00 am)
Average34 °F83%30.20 "Hg
* Reported Nov 24 3:00 am — Dec 9 3:00 am, Tarnów, Weather by CustomWeather, © 2016

Note: Actual official high and low records may vary slightly from our data, if they occured in-between our weather recording intervals... More about our weather records

Advertising

Tarnów Weather History for the Previous 24 Hours

Scroll right to see more
 ConditionsComfort  
Time TempWeatherWind HumidityBarometerVisibility
3:00 am
Fri, Dec 9
45 °FRain showers. Overcast.1 mph50%30.22 "Hg7 mi
2:00 am46 °FCool.1 mph51%30.23 "Hg9 mi
1:00 am47 °FCool.2 mph50%30.22 "Hg9 mi
12:00 am47 °FCool.2 mph52%30.23 "Hg11 mi
11:00 pm
Thu, Dec 8
47 °FCool.2 mph55%30.23 "Hg9 mi
10:00 pm46 °FCool.1 mph59%30.24 "Hg7 mi
9:00 pm46 °FCool.1 mph60%30.24 "Hg6 mi
8:00 pm46 °FCool.1 mph61%30.25 "Hg8 mi
7:00 pm46 °FCool.1 mph63%30.26 "Hg7 mi
6:00 pm44 °FFog.2 mph66%30.27 "Hg6 mi
5:00 pm42 °FFog.1 mph67%30.28 "Hg4 mi
4:00 pm46 °FCool.2 mph63%30.29 "Hg8 mi
3:00 pm49 °FCool.2 mph58%30.29 "Hg11 mi
2:00 pm51 °FCool.3 mph53%30.29 "Hg28 mi
1:00 pm50 °FCool.2 mph58%30.31 "Hg18 mi
12:00 pm48 °FCool.2 mph61%30.33 "Hg16 mi
11:00 am43 °FQuite cool.2 mph69%30.37 "Hg9 mi
10:00 am41 °FQuite cool.2 mph72%30.39 "Hg7 mi
9:00 am38 °FChilly.1 mph78%30.40 "Hg7 mi
8:00 am36 °FChilly.2 mph81%30.41 "Hg6 mi
7:00 am36 °FChilly.2 mph81%30.42 "Hg5 mi
6:00 am35 °FChilly.2 mph80%30.43 "Hg8 mi
5:00 am33 °FLight rain. Overcast.2 mph84%30.45 "Hg7 mi
Weather by CustomWeather, © 2016

See weather overviewHow to use our weather pages